Wind_Speed
54 55 56 57 57 58 58 59 59 60 61 62 62 62 62 62 63 63 63 64 65 65 65 64 63 63 63 62 63 63 63 63 63 60 61 60 61 61 61 61 61 62 63
56 57 57 57 58 58 59 59 60 60 61 61 61 61 61 62 63 63 64 64 65 64 65 65 64 64 64 64 65 65 65 66 66 65 64 64 64 64 64 64 65 65 65
58 58 58 58 59 59 59 59 60 60 60 61 61 62 62 63 64 64 65 65 65 66 66 66 66 67 67 67 68 68 68 69 70 69 68 68 67 67 67 67 67 67 66
58 58 58 58 58 58 59 59 60 60 61 62 62 63 63 64 65 66 67 67 68 68 69 69 70 70 71 71 71 72 72 73 73 73 73 72 71 71 71 70 69 68 68
58 58 58 58 59 59 60 61 61 62 62 63 64 65 66 67 68 69 70 70 71 71 71 72 73 73 74 74 74 74 75 76 76 76 76 76 75 74 73 72 72 71 71
60 60 60 61 61 62 62 63 64 65 66 67 68 69 69 70 71 72 73 74 74 74 74 75 75 76 76 76 76 77 77 78 79 79 79 78 77 76 75 75 74 73 73
63 63 64 64 65 65 66 67 68 68 69 70 71 71 72 73 74 75 76 76 77 77 77 77 77 77 78 78 78 79 79 79 80 80 80 79 78 77 76 75 75 74 73
66 67 68 68 69 69 70 71 71 72 73 73 74 74 75 75 76 77 78 79 79 79 79 79 79 80 80 80 80 80 80 80 80 81 80 79 78 77 76 75 74 73 72
70 71 72 73 73 74 74 75 76 76 77 77 78 78 79 79 80 81 81 82 82 82 82 82 82 81 81 81 81 81 80 80 80 80 79 78 77 76 75 74 72 71 71
74 75 76 77 78 79 79 80 81 81 82 82 82 82 83 83 83 84 85 85 85 84 84 83 83 82 82 81 81 80 79 78 78 78 77 75 74 73 71 70 69 68 67
77 78 79 80 81 82 83 84 85 85 85 85 85 85 86 86 86 87 87 87 86 85 84 83 82 82 81 81 80 79 78 77 76 74 73 71 69 69 68 67 65 65 64
80 81 82 83 84 85 86 86 87 87 88 88 89 88 88 88 87 87 86 85 84 83 81 80 78 78 77 77 76 75 74 73 71 69 68 66 65 65 64 63 61 60 60
82 83 84 85 86 87 87 88 88 89 89 89 89 88 87 86 84 83 82 80 79 77 76 74 73 72 71 70 69 68 67 66 66 65 63 62 62 62 60 58 58 58 58
84 85 85 86 86 86 87 88 88 88 88 88 87 86 84 82 81 80 78 76 74 72 71 69 67 66 64 64 63 62 62 61 61 60 59 59 58 57 56 56 56 55 55
84 85 85 86 86 86 87 87 87 87 87 86 85 83 82 79 77 76 73 71 69 67 65 63 61 59 58 57 57 56 56 56 56 56 55 55 54 54 53 53 52 52 51
84 84 85 86 86 87 87 86 86 85 84 83 81 79 77 75 72 70 67 65 62 60 58 56 54 53 53 52 51 51 50 50 50 50 50 50 49 49 49 48 48 49 50
85 85 85 85 85 85 85 84 82 80 79 77 74 72 70 67 65 62 59 56 54 53 51 49 48 47 46 46 45 45 45 46 46 46 46 46 46 46 46 47 47 48 49
83 83 83 83 82 81 80 78 76 75 72 69 67 65 63 60 57 53 51 49 47 46 45 44 43 43 43 43 43 43 43 43 43 44 44 44 45 46 46 47 48 49 50
81 80 79 78 77 75 74 72 70 68 65 62 60 57 54 51 48 46 45 44 43 42 42 41 40 40 40 40 41 41 42 42 42 43 44 44 45 46 47 48 50 51 52
77 76 74 73 71 69 67 65 62 59 57 54 51 49 46 44 43 42 42 41 40 40 39 39 39 39 39 40 41 41 42 42 43 44 45 46 47 48 49 51 52 53 54
71 69 68 66 64 62 60 57 55 52 49 47 45 43 42 41 40 40 39 39 38 38 38 38 39 39 40 41 42 43 44 44 45 46 47 48 49 50 52 53 54 55 56
65 63 61 59 57 55 52 50 47 45 44 43 41 41 40 39 39 38 38 38 39 39 40 40 41 41 42 43 44 45 45 46 47 48 49 50 51 53 54 55 57 58 59
59 57 55 53 50 48 46 44 42 40 40 40 39 39 39 38 38 38 38 39 40 41 41 42 42 43 44 45 46 47 47 48 50 51 52 53 55 56 57 58 60 61 62
53 51 49 47 45 43 41 40 39 39 38 38 38 37 37 38 38 39 40 41 41 42 43 43 44 45 46 47 48 49 50 52 53 54 56 57 59 60 61 62 63 64 65
47 45 43 42 41 40 39 38 38 38 37 37 37 37 37 37 39 40 41 42 43 44 45 46 46 47 49 50 51 53 54 55 57 58 60 61 62 62 63 64 65 65 65
43 42 41 40 39 39 38 38 37 37 37 37 37 38 38 39 40 41 43 44 45 46 47 48 49 51 52 54 55 56 58 59 60 61 62 63 63 64 64 65 65 64 64
Wind_Direction
272 272 273 274 274 275 276 277 277 278 279 280 281 282 283 283 284 285 286 286 287 289 290 290 291 292 292 292 293 293 293 293 293 293 292 292 291 291 291 290 289 288 288
274 275 275 276 276 277 277 278 279 279 280 280 281 282 283 284 284 285 286 286 288 288 289 290 291 291 291 291 291 291 291 292 292 292 291 291 291 290 290 289 289 288 288
276 277 277 278 278 278 278 279 280 280 281 281 282 283 283 284 284 285 285 286 287 288 288 289 290 290 290 290 290 290 290 290 290 291 290 290 290 289 289 288 288 288 287
277 278 278 278 279 279 279 279 280 280 281 282 282 283 284 284 284 284 285 285 286 287 287 288 288 289 289 289 289 289 289 289 289 289 290 289 289 289 288 288 287 287 286
278 278 279 279 279 279 280 280 281 281 282 282 283 283 284 284 285 285 285 285 286 286 287 287 287 288 288 288 288 288 288 288 288 288 288 288 288 288 287 287 286 286 285
280 281 281 281 282 282 282 282 282 283 283 284 284 284 284 285 285 285 285 285 286 286 286 287 287 287 287 286 286 286 286 287 287 287 287 287 287 287 286 286 286 285 285
281 282 283 283 284 284 284 285 285 285 285 285 286 286 286 286 286 285 285 286 286 286 286 286 286 286 286 285 285 285 285 286 286 286 286 286 286 285 285 285 285 285 285
281 282 283 284 285 286 286 286 287 287 287 287 287 288 287 287 287 287 286 286 286 286 286 285 285 285 285 284 284 284 284 284 284 284 284 284 284 284 284 284 284 284 284
282 283 284 285 285 286 286 287 287 287 288 288 288 288 288 288 288 288 287 287 287 287 286 286 286 285 284 283 283 283 282 282 282 282 282 283 283 283 283 283 283 283 283
282 283 284 285 285 286 286 287 287 288 288 288 288 288 288 288 288 288 288 288 287 287 286 286 285 284 283 282 282 282 282 281 281 281 282 282 283 283 282 283 282 282 281
282 283 284 285 286 286 287 288 288 289 289 289 289 289 289 289 289 288 288 288 287 287 286 285 284 283 282 281 281 281 281 281 281 281 282 282 282 282 282 281 281 281 281
283 284 285 286 286 287 287 288 288 289 289 289 289 290 290 290 290 289 289 288 288 287 286 285 284 283 282 281 281 281 281 281 281 281 281 280 280 280 281 281 281 281 281
283 284 285 286 286 287 288 288 289 289 289 290 290 290 290 290 290 290 290 289 289 288 287 286 285 283 282 281 281 281 281 281 280 280 280 279 279 280 279 279 280 281 281
284 285 285 286 287 287 288 289 289 290 290 290 290 291 291 290 290 290 290 289 289 288 288 287 286 285 283 282 281 281 281 280 280 280 279 278 277 278 278 279 280 280 280
285 285 286 286 287 288 288 289 290 290 290 291 291 291 291 290 290 290 289 289 288 287 287 286 285 284 284 283 282 281 281 280 279 279 279 278 278 278 279 279 280 281 282
285 286 286 287 288 288 289 289 289 290 290 291 291 291 291 290 290 289 289 288 287 286 286 285 285 284 283 283 282 281 280 280 279 279 279 279 279 279 280 280 281 283 285
286 287 287 288 288 289 289 290 290 290 290 291 290 290 290 290 290 289 287 286 286 285 285 284 284 283 282 282 282 281 281 281 281 280 280 281 281 282 283 284 285 286 287
287 288 288 289 289 289 290 290 290 290 290 290 290 290 290 289 288 287 286 285 285 285 285 284 283 283 282 282 282 282 282 283 283 282 283 284 285 286 287 288 289 290 290
288 288 289 289 290 290 290 290 290 290 290 289 289 289 289 287 286 285 284 284 284 284 283 283 283 283 283 284 284 284 283 283 284 284 285 287 288 289 289 290 291 291 292
288 288 289 289 290 290 290 290 290 289 289 289 288 287 286 285 284 284 283 283 283 283 283 283 283 284 285 286 285 284 284 285 286 287 287 288 289 290 291 291 291 292 292
288 289 289 290 290 290 290 289 288 287 287 286 286 285 284 283 282 283 283 283 283 283 283 283 283 284 285 285 286 286 286 286 287 288 288 289 290 291 291 292 292 292 293
288 289 289 290 290 289 289 287 286 286 285 285 284 283 282 282 282 282 283 283 284 284 284 284 284 285 285 286 286 286 287 287 288 288 289 290 291 291 292 292 292 293 293
288 288 288 289 289 288 287 286 285 284 284 284 284 284 282 282 282 283 283 284 284 285 285 285 285 286 286 287 287 287 288 288 289 289 290 291 292 292 292 292 293 293 294
287 287 287 287 287 286 285 284 284 284 284 284 284 283 283 282 283 283 284 284 284 285 285 286 286 287 288 288 288 288 289 290 290 291 292 292 292 292 293 293 293 294 294
285 285 285 285 284 284 284 284 284 284 284 283 283 283 283 283 284 285 285 285 284 285 286 286 287 288 288 289 289 289 290 290 291 292 292 293 293 293 293 294 294 294 294
283 282 283 283 283 282 282 282 282 282 282 282 282 283 284 285 285 285 285 285 286 286 287 287 288 289 289 289 290 290 291 291 292 292 292 293 293 293 294 294 294 294 294
Height
5766 5765 5763 5762 5760 5758 5756 5754 5751 5749 5746 5743 5740 5737 5734 5730 5726 5723 5720 5717 5713 5710 5706 5702 5699 5694 5689 5685 5680 5676 5671 5666 5665 5667 5662 5658 5653 5649 5644 5640 5636 5632 5628
5752 5751 5749 5748 5746 5744 5741 5739 5737 5734 5731 5729 5726 5723 5719 5716 5712 5709 5706 5702 5699 5695 5692 5687 5684 5679 5675 5670 5665 5661 5656 5651 5648 5648 5647 5642 5638 5634 5629 5624 5620 5616 5612
5738 5737 5735 5733 5731 5729 5727 5724 5722 5719 5717 5714 5711 5708 5705 5701 5698 5694 5690 5687 5684 5681 5677 5673 5669 5664 5660 5655 5650 5645 5641 5635 5631 5629 5629 5625 5621 5617 5612 5607 5603 5599 5595
5723 5722 5720 5718 5716 5714 5712 5710 5707 5705 5702 5699 5696 5693 5690 5686 5682 5678 5675 5672 5668 5665 5661 5657 5652 5648 5643 5638 5634 5629 5623 5618 5614 5610 5608 5606 5603 5599 5594 5589 5585 5581 5577
5708 5706 5705 5703 5701 5699 5697 5694 5692 5689 5687 5684 5681 5678 5674 5670 5666 5662 5658 5655 5651 5648 5644 5639 5635 5630 5625 5620 5615 5611 5605 5600 5595 5591 5588 5585 5583 5579 5575 5570 5565 5561 5557
5692 5690 5689 5687 5685 5683 5681 5678 5676 5673 5670 5667 5664 5661 5657 5653 5648 5644 5640 5636 5633 5629 5625 5621 5616 5611 5606 5600 5595 5591 5586 5580 5575 5571 5567 5564 5562 5558 5553 5549 5545 5540 5537
5676 5674 5672 5670 5668 5665 5663 5660 5657 5655 5652 5648 5645 5642 5638 5634 5629 5624 5619 5616 5613 5609 5605 5600 5595 5590 5585 5580 5575 5570 5565 5560 5555 5549 5545 5543 5539 5536 5532 5528 5524 5520 5517
5659 5657 5655 5653 5650 5648 5645 5641 5638 5636 5632 5629 5626 5622 5618 5614 5608 5604 5598 5594 5591 5587 5582 5578 5573 5569 5563 5557 5553 5549 5545 5540 5534 5528 5524 5521 5518 5514 5510 5507 5503 5499 5496
5642 5640 5637 5634 5632 5629 5626 5623 5619 5616 5613 5609 5605 5600 5596 5593 5587 5581 5576 5571 5568 5564 5559 5554 5549 5544 5539 5533 5528 5525 5522 5518 5512 5506 5502 5499 5496 5492 5489 5486 5483 5479 5476
5624 5621 5618 5615 5612 5609 5606 5602 5598 5594 5591 5587 5583 5578 5574 5570 5564 5558 5552 5547 5543 5539 5535 5530 5524 5519 5514 5509 5504 5501 5498 5495 5490 5485 5481 5478 5475 5472 5469 5466 5463 5460 5456
5606 5603 5599 5595 5592 5588 5585 5580 5576 5572 5568 5564 5560 5556 5550 5545 5539 5533 5527 5521 5517 5513 5509 5505 5500 5494 5489 5485 5481 5477 5474 5471 5468 5464 5461 5458 5455 5452 5449 5446 5443 5440 5437
5587 5583 5579 5575 5570 5566 5562 5558 5553 5548 5544 5539 5534 5531 5525 5519 5513 5507 5501 5496 5490 5486 5483 5479 5474 5470 5465 5461 5458 5454 5451 5449 5446 5444 5441 5438 5436 5433 5430 5427 5424 5422 5419
5566 5562 5558 5554 5549 5543 5539 5535 5530 5524 5519 5514 5509 5505 5501 5495 5488 5482 5477 5471 5466 5461 5458 5454 5450 5446 5442 5439 5436 5433 5431 5428 5426 5424 5422 5420 5417 5415 5412 5410 5407 5404 5402
5544 5540 5535 5531 5527 5521 5516 5510 5506 5500 5494 5489 5484 5479 5475 5471 5465 5459 5454 5449 5444 5439 5435 5432 5428 5424 5421 5419 5416 5414 5411 5409 5407 5405 5403 5401 5399 5397 5395 5393 5390 5388 5385
5522 5517 5513 5508 5503 5498 5493 5488 5482 5477 5470 5465 5460 5455 5450 5447 5442 5436 5431 5427 5423 5419 5415 5411 5408 5405 5402 5400 5398 5396 5393 5391 5390 5388 5386 5384 5382 5380 5378 5376 5374 5371 5369
5499 5495 5490 5485 5480 5474 5470 5466 5459 5453 5447 5441 5436 5432 5427 5423 5419 5415 5410 5406 5402 5399 5396 5393 5391 5388 5386 5384 5382 5379 5377 5376 5374 5373 5371 5369 5367 5365 5363 5361 5358 5356 5354
5475 5471 5466 5461 5456 5451 5445 5441 5437 5432 5425 5420 5415 5410 5406 5402 5398 5395 5391 5388 5385 5382 5380 5377 5375 5373 5371 5369 5367 5365 5364 5362 5360 5358 5356 5355 5353 5351 5349 5347 5344 5341 5339
5452 5447 5442 5437 5432 5427 5422 5417 5413 5409 5405 5400 5395 5391 5387 5383 5380 5377 5375 5372 5370 5367 5365 5363 5361 5359 5357 5356 5354 5352 5351 5349 5347 5345 5343 5341 5339 5337 5335 5332 5330 5327 5324
5429 5425 5419 5415 5410 5405 5401 5396 5392 5388 5384 5380 5377 5373 5370 5367 5364 5362 5360 5358 5356 5354 5352 5350 5348 5347 5345 5343 5341 5339 5338 5336 5334 5332 5330 5328 5325 5323 5320 5318 5315 5312 5308
5408 5403 5398 5394 5390 5385 5381 5377 5373 5369 5366 5363 5360 5358 5355 5353 5351 5349 5347 5345 5343 5342 5340 5338 5336 5335 5333 5331 5329 5327 5325 5323 5321 5319 5317 5314 5312 5309 5306 5303 5300 5296 5292
5388 5383 5379 5375 5371 5367 5363 5360 5356 5353 5351 5348 5346 5343 5342 5340 5338 5336 5335 5333 5331 5330 5328 5326 5324 5323 5321 5319 5317 5315 5313 5310 5308 5306 5303 5301 5298 5295 5291 5288 5284 5280 5276
5369 5365 5361 5357 5353 5350 5347 5344 5341 5339 5337 5335 5332 5331 5329 5327 5326 5324 5323 5321 5319 5318 5316 5314 5312 5310 5308 5306 5304 5302 5299 5297 5295 5292 5289 5286 5283 5279 5276 5272 5268 5263 5259
5351 5348 5344 5341 5338 5335 5332 5330 5328 5326 5324 5322 5320 5318 5317 5315 5314 5313 5311 5309 5307 5306 5304 5302 5300 5298 5295 5293 5291 5288 5285 5283 5280 5277 5274 5270 5267 5263 5259 5255 5251 5246 5241
5335 5332 5329 5327 5324 5322 5319 5317 5316 5314 5312 5310 5308 5307 5305 5304 5302 5300 5299 5297 5295 5293 5291 5289 5287 5284 5282 5279 5276 5273 5270 5267 5264 5261 5257 5253 5249 5245 5241 5237 5232 5227 5222
5320 5318 5316 5313 5311 5309 5308 5306 5304 5302 5300 5299 5297 5295 5294 5292 5290 5288 5286 5284 5282 5280 5278 5275 5272 5270 5267 5264 5261 5257 5254 5251 5247 5244 5240 5235 5231 5227 5222 5218 5213 5208 5202
5307 5305 5303 5301 5299 5297 5296 5294 5292 5290 5289 5287 5285 5284 5282 5280 5278 5276 5273 5271 5269 5266 5263 5260 5257 5254 5251 5248 5244 5240 5237 5233 5229 5225 5221 5216 5212 5207 5203 5198 5193 5188 5183